Voltar ao catálogo

FENGYUN 1C DEB

AtivoPO
NORAD 29934·DEBRIS·🇨🇳 China

Lançado May 10, 1999 de Taiyuan Satellite Launch Center

Loading…

Próximas Passagens (próximas 24 horas)

TLE

AtualizadoSource: Space-Track

Época: Sep 14, 2026, 11:06 UTC

1 29934U 99025JG  26257.46283110  .00003644  00000-0  63020-3 0  9990
2 29934  98.8722 331.3693 0099109 122.9969 238.0805 14.65881052 38062

Acompanhe FENGYUN 1C DEB em tempo real com AllMySat

Download on the App Store